Theta_e
337 338 338 338 337 337 337 338 338 338 338 337 337 337 336 335 334 334 331 330 330 328 328 328 327 327 326 325 324 323 322 322 322 322 321 320 318 317 316 315 314 314 313 312 311 313 313 311 311 311 312 311 310 310 309 309 311 311 311 310 310 311 309 308 305 306 305 308 307 304 304 305 302 303 301 304 304 305 306 306 307 306 306 306 306
336 337 338 338 337 337 337 338 338 338 337 336 336 336 335 334 334 332 330 330 329 328 328 328 327 326 325 324 323 322 322 321 320 320 319 317 317 315 315 314 313 313 312 311 311 312 313 310 308 309 310 309 309 307 307 307 306 307 309 309 308 309 312 308 307 305 303 305 305 306 305 305 301 302 303 304 305 305 302 303 305 305 306 306 306
337 338 337 337 337 337 337 337 337 337 336 335 335 335 334 334 332 330 330 329 328 328 327 326 326 325 324 323 322 321 321 320 320 319 318 317 315 314 314 313 313 312 311 311 309 310 310 310 309 309 310 309 310 309 309 307 307 307 307 308 309 309 308 310 308 306 304 303 306 303 303 302 302 300 301 303 304 303 302 302 303 303 304 306 306
337 337 337 337 337 337 336 336 336 336 334 334 335 335 333 332 330 330 330 328 326 327 326 325 324 324 323 322 321 320 319 319 318 318 317 316 315 313 312 312 313 313 312 311 309 309 309 309 309 310 310 309 308 308 308 308 307 306 306 307 308 307 309 309 309 308 305 303 304 303 303 301 301 301 301 302 301 301 302 303 304 305 305 304 305
337 337 337 336 337 336 336 335 335 334 334 334 335 334 333 331 330 329 329 327 326 325 324 323 323 322 322 321 320 319 319 318 317 317 316 315 314 313 312 312 313 312 312 311 309 310 310 310 309 309 309 308 308 307 307 308 306 306 306 306 306 308 308 308 307 307 305 303 303 304 304 303 304 303 302 301 303 304 306 306 303 304 305 305 306
337 337 336 335 335 335 335 335 334 333 333 334 334 333 333 330 329 329 328 326 325 324 322 321 321 320 321 321 320 319 318 317 317 316 315 314 314 313 312 312 312 311 311 310 310 311 310 310 309 309 308 308 308 308 308 307 307 306 306 305 305 307 307 306 306 306 305 304 303 300 302 301 299 301 303 302 301 302 303 304 306 308 306 305 304
337 336 336 335 334 334 334 333 333 332 333 333 333 332 332 330 329 328 327 326 324 322 321 320 320 321 321 320 319 318 317 316 316 316 314 313 313 312 312 312 311 311 310 310 310 310 310 310 310 309 308 309 309 308 308 309 308 307 307 307 306 307 306 304 304 305 304 303 302 302 299 302 302 300 301 300 301 302 302 302 302 304 305 305 303
335 336 336 335 334 333 333 334 333 333 333 333 331 332 332 330 329 328 327 325 324 322 320 320 319 319 319 319 319 318 316 315 315 315 314 313 312 312 311 311 310 309 310 309 310 310 310 310 309 309 309 309 309 309 309 308 308 307 308 309 308 305 304 304 305 303 303 303 300 299 300 300 300 302 301 301 302 302 303 301 299 300 302 304 306
335 335 335 334 334 334 334 334 333 332 332 331 330 330 331 329 328 327 326 325 324 322 320 319 318 317 317 317 316 316 315 315 315 314 314 313 313 311 311 310 310 309 309 309 309 309 309 310 310 309 310 309 308 308 309 309 309 308 308 307 305 304 304 304 304 303 302 301 300 301 300 299 300 300 300 301 301 301 303 303 302 303 303 303 304
334 334 333 333 334 334 333 332 332 331 330 329 329 329 328 327 327 326 325 325 323 321 318 318 318 317 316 316 315 315 315 315 312 308 309 313 313 312 312 312 311 310 309 309 309 309 309 310 310 308 308 308 306 302 300 302 306 308 307 306 305 304 304 303 302 302 301 299 299 299 298 298 298 301 302 303 304 303 302 303 301 302 303 302 303
333 333 333 333 334 333 332 331 330 329 329 329 328 327 326 326 325 325 325 324 322 319 315 314 315 315 316 315 315 314 314 313 303 299 299 303 312 313 312 311 311 310 310 309 308 308 309 308 310 308 308 306 307 299 298 298 298 300 301 304 307 306 304 303 302 302 300 300 301 300 299 298 300 302 303 303 303 302 303 303 302 301 300 298 297
333 333 333 334 333 332 331 331 329 329 329 328 327 326 325 325 324 325 324 322 320 317 314 314 314 315 315 316 315 315 315 306 297 297 297 298 305 313 313 311 311 310 310 309 309 309 308 309 310 310 310 309 309 304 301 297 296 296 295 296 295 296 298 304 304 302 302 300 300 300 300 300 302 303 302 302 302 303 304 303 302 301 300 299 298
333 333 333 333 332 331 331 330 329 328 328 328 327 326 325 324 325 326 324 321 318 315 315 315 314 315 315 315 315 315 315 299 296 296 296 297 299 307 312 312 311 310 310 310 309 309 309 309 309 311 312 310 308 308 306 304 298 295 296 296 295 293 292 292 296 305 305 302 300 300 301 302 302 302 304 303 305 304 303 302 303 303 302 300 300
333 332 333 332 331 331 331 330 329 329 329 328 327 325 324 324 325 325 323 319 316 317 318 316 314 314 315 316 316 315 315 300 296 296 296 295 296 302 312 312 311 310 310 310 310 310 309 309 308 309 310 309 308 307 307 307 306 304 303 303 303 300 294 291 292 292 301 304 302 301 305 304 302 304 306 305 304 303 303 301 304 303 302 302 305
333 332 332 332 332 331 330 330 329 329 328 326 326 325 324 324 323 322 320 318 318 318 317 316 314 314 314 316 315 314 315 298 295 295 295 295 295 300 313 312 311 311 311 311 310 310 310 311 311 309 309 308 309 306 306 306 306 305 304 303 304 303 302 302 304 305 305 306 307 307 308 307 306 306 307 307 306 305 305 305 305 305 305 307 306
332 332 331 331 331 331 330 329 329 329 327 325 324 323 323 322 321 320 320 319 319 319 319 317 314 313 314 313 313 312 313 295 295 295 294 294 295 309 312 311 311 310 310 310 310 311 311 311 309 308 309 308 304 297 302 306 305 304 302 302 302 303 303 305 299 299 306 308 308 308 309 310 300 308 307 305 305 306 305 304 305 305 304 301 299
331 330 330 331 331 331 330 329 328 327 326 324 323 323 323 321 321 321 319 318 317 318 319 317 315 315 313 312 313 313 313 298 294 294 294 293 299 311 311 310 310 310 309 310 309 310 310 309 309 309 308 306 299 292 294 299 304 302 301 301 301 301 301 305 298 293 293 292 292 292 292 291 291 291 291 292 300 303 303 302 302 304 300 298 299
331 331 331 331 331 331 331 329 328 326 326 324 323 324 324 323 322 321 319 318 318 319 319 317 316 315 313 313 314 314 313 302 294 294 294 294 303 311 310 310 309 309 309 309 309 309 308 307 307 308 307 306 293 291 291 298 302 301 301 300 300 300 301 305 305 304 293 292 292 292 291 291 291 291 291 291 291 296 302 300 303 302 300 300 298
331 331 331 331 332 331 330 329 328 326 325 324 324 324 323 322 321 320 321 321 320 320 318 315 313 314 314 314 310 312 313 303 294 294 294 294 304 312 310 310 309 308 308 308 309 308 308 306 304 305 307 303 290 291 291 297 302 301 301 301 300 301 302 305 305 305 306 307 307 304 302 297 301 304 304 293 292 296 303 305 306 303 300 299 299
332 332 333 332 331 330 330 328 328 327 325 324 324 325 324 322 320 320 321 321 320 319 317 315 313 313 314 313 311 313 311 306 299 293 294 294 299 311 311 309 308 308 308 307 306 306 305 306 303 295 294 292 290 290 290 293 300 301 302 301 301 300 304 305 305 305 305 305 306 305 304 305 305 304 305 305 302 302 304 306 306 305 302 300 300
333 333 333 331 331 330 329 328 327 327 327 325 325 324 324 323 321 321 319 320 319 318 315 314 313 313 313 313 312 313 311 308 301 293 294 294 296 302 310 310 310 309 308 306 306 305 304 304 306 298 292 291 290 290 290 291 294 302 303 301 302 303 302 303 304 300 304 304 304 303 303 303 304 303 302 304 304 305 305 306 307 307 305 302 300
333 333 332 331 330 329 328 328 328 327 326 325 324 323 324 324 323 322 322 320 319 317 314 313 313 313 312 311 311 311 309 305 303 294 293 294 296 299 309 311 310 310 308 307 306 306 306 306 307 300 292 291 291 290 290 291 291 300 302 295 295 292 301 303 304 304 303 302 301 301 302 302 303 303 302 302 302 304 305 307 308 308 307 306 303
333 331 330 329 328 328 327 326 326 326 325 325 324 324 323 323 322 323 323 320 317 316 315 315 314 312 310 308 309 309 308 306 299 299 294 294 294 297 299 305 298 310 309 307 306 306 308 308 307 297 292 291 291 291 291 290 292 297 294 292 292 291 295 301 301 301 301 301 301 301 301 302 302 300 300 300 303 306 305 306 307 307 306 307 307
331 329 326 327 327 327 326 325 326 326 325 325 324 323 321 321 322 322 321 317 314 313 312 313 314 312 309 307 308 308 308 307 299 297 297 293 294 295 295 297 298 309 310 308 307 306 306 307 305 294 292 291 290 291 291 291 297 293 291 291 291 292 299 300 300 301 300 301 300 300 301 302 301 299 298 300 301 306 306 307 307 308 307 307 308
324 323 323 324 325 326 326 325 325 325 325 325 323 321 320 320 319 319 318 317 315 314 314 315 314 312 310 307 306 307 308 307 303 297 294 293 293 294 294 294 294 297 308 309 308 308 302 298 296 293 292 292 291 290 291 291 291 292 291 291 294 298 299 301 302 303 301 300 300 301 301 301 301 300 302 303 304 304 305 306 308 308 308 308 308
323 322 323 323 323 324 322 322 323 324 324 324 323 322 320 318 318 317 316 316 316 316 315 313 312 312 310 308 307 305 306 306 304 301 297 296 295 293 293 293 295 296 301 306 299 298 296 295 293 292 292 293 296 298 299 300 292 291 290 292 300 300 300 300 301 301 300 300 299 299 301 302 301 302 303 303 302 300 303 303 304 303 306 305 304
322 322 323 323 322 321 318 320 321 321 323 323 323 322 321 320 318 314 314 314 314 313 311 311 312 311 309 308 307 307 306 305 305 303 301 300 300 299 297 298 295 294 301 306 300 302 300 299 300 296 297 293 295 296 297 297 297 296 296 297 300 301 300 301 302 303 301 301 300 301 302 302 302 300 299 300 300 301 303 302 301 302 303 303 303
322 322 323 322 321 321 320 308 315 320 320 321 319 319 320 321 318 315 315 314 313 312 310 310 310 309 308 308 307 305 304 304 305 304 302 301 300 299 299 300 301 302 304 306 306 307 306 297 297 302 302 300 300 301 300 301 300 298 298 298 299 299 298 297 297 301 302 302 302 302 300 301 300 299 299 298 298 299 303 301 300 301 303 303 301
322 323 323 321 320 318 319 317 318 318 318 318 319 319 319 319 318 318 320 318 315 312 311 312 313 312 311 310 308 306 306 305 305 299 302 297 298 299 299 300 302 303 302 298 304 304 304 304 303 302 302 300 297 302 301 299 299 299 300 301 302 302 302 301 300 301 301 300 300 301 300 302 301 300 298 298 299 300 302 301 303 303 303 302 299
323 322 323 322 320 318 317 318 318 316 316 315 311 304 293 298 314 320 318 306 304 303 303 313 315 314 313 311 311 309 307 307 297 295 295 294 294 295 296 296 297 301 297 294 299 303 304 304 304 301 302 302 301 299 299 299 300 301 302 297 301 301 301 300 300 301 302 300 300 300 301 301 301 300 299 299 300 301 300 297 302 303 301 300 300
321 322 321 321 316 317 317 318 317 316 315 312 310 307 305 301 293 296 300 300 299 299 300 301 301 303 310 311 308 299 296 294 294 295 294 294 294 293 294 294 294 293 292 298 301 301 299 301 301 303 301 303 297 299 298 299 299 299 303 302 302 301 297 301 301 299 299 295 298 300 300 299 299 299 299 298 300 299 302 301 300 301 300 300 299
321 321 321 320 313 312 318 317 316 315 313 312 310 308 306 304 301 293 293 294 294 295 295 296 298 298 300 304 306 306 294 293 294 293 293 293 293 292 292 292 292 292 292 295 300 300 301 301 300 301 301 300 298 299 301 302 301 302 302 300 299 299 299 299 300 301 299 297 296 295 296 295 297 297 298 299 296 299 301 300 299 299 299 300 300
322 321 319 317 315 313 315 315 314 314 311 310 309 309 308 306 303 301 296 292 293 293 294 295 296 296 296 297 298 299 297 294 293 293 293 293 292 292 292 292 292 291 292 297 300 299 300 302 302 302 300 299 301 302 302 302 302 301 302 298 298 300 301 302 297 299 297 297 296 296 296 295 293 294 294 295 295 294 297 296 299 298 299 298 296
322 320 317 316 316 316 315 314 313 312 311 310 310 310 308 307 306 303 301 301 300 296 293 294 294 295 295 296 295 294 294 293 292 293 292 292 292 291 291 294 290 291 295 300 301 299 300 300 300 301 302 302 302 301 301 302 301 301 300 301 302 302 302 303 299 296 294 295 295 296 296 295 295 294 295 297 297 297 295 296 299 295 297 297 297
319 304 299 306 317 316 315 313 312 311 310 310 309 307 307 305 304 303 304 303 303 303 303 301 296 296 298 294 293 292 292 292 292 292 292 291 291 291 292 297 295 296 298 303 303 301 300 299 300 301 303 303 301 300 301 302 302 301 300 299 299 299 299 298 297 297 295 295 295 297 296 296 299 295 295 296 296 296 296 295 297 298 298 298 298
316 313 312 311 314 314 313 313 312 311 310 310 309 307 304 303 304 304 303 303 302 302 301 302 300 292 293 293 291 292 292 292 292 291 291 290 290 292 298 298 298 299 299 301 301 301 300 301 301 302 303 303 303 303 302 302 301 300 299 298 297 297 298 297 296 294 296 296 296 294 295 295 297 296 297 298 299 297 296 296 296 295 296 298 296
312 311 311 311 312 311 311 310 310 309 301 303 305 305 305 304 303 304 304 303 302 302 300 298 298 297 295 295 293 291 291 291 291 291 290 290 291 298 304 302 301 301 300 300 300 299 301 302 302 303 302 301 302 303 302 300 300 300 297 298 299 299 298 297 296 293 295 295 295 296 296 295 295 296 296 295 295 296 296 296 294 293 294 294 293
311 310 311 311 311 310 310 308 303 295 301 304 305 305 303 304 304 303 302 303 300 299 300 300 298 301 299 296 296 295 292 290 290 290 290 291 293 301 303 301 302 302 301 301 300 301 301 302 302 302 303 303 303 303 302 302 300 299 298 299 298 297 293 294 291 295 293 293 295 295 294 295 297 297 295 295 295 294 294 294 295 296 295 292 294
309 298 295 296 298 308 305 302 302 304 304 304 304 302 301 302 302 303 302 300 300 300 300 302 303 302 300 297 296 295 294 297 297 294 294 295 297 299 300 301 302 302 301 300 299 299 301 301 301 301 302 302 302 303 302 301 300 299 299 298 297 295 295 295 294 294 295 295 295 296 296 296 297 297 296 295 294 294 294 294 294 295 296 296 296
304 303 297 294 299 300 301 300 303 304 302 304 304 304 301 302 303 303 302 302 302 301 302 302 302 302 300 298 296 298 299 297 297 295 294 294 294 298 300 301 301 300 299 299 300 301 301 302 302 301 302 302 302 301 300 300 300 298 298 296 295 295 296 295 296 296 296 296 296 296 296 296 296 296 295 295 295 295 294 294 294 294 296 296 296
305 302 296 296 297 302 301 301 302 303 304 303 303 305 304 303 304 303 305 304 302 302 302 303 303 301 298 295 293 296 300 298 296 294 293 294 295 297 299 300 300 299 298 298 299 300 301 301 300 300 301 302 302 301 300 299 298 297 296 295 294 295 296 296 295 296 296 295 295 295 296 296 296 296 295 295 294 294 294 294 295 294 295 295 295
304 302 301 300 300 303 302 301 300 299 300 299 304 303 301 301 303 304 302 301 299 299 300 301 301 300 294 291 291 293 299 299 296 295 296 296 296 297 297 298 299 300 300 300 300 301 300 299 299 300 300 300 300 299 299 298 297 296 296 295 295 295 294 295 295 294 294 294 294 294 295 295 295 295 294 293 294 295 295 295 296 296 297 296 295
303 303 304 301 303 301 300 300 302 302 301 302 301 297 298 301 301 301 301 300 298 298 299 300 299 299 295 290 291 290 300 301 296 298 297 296 296 296 296 298 299 301 301 300 299 300 299 300 300 302 300 301 301 299 296 296 297 296 294 295 294 293 293 294 294 294 294 294 294 293 293 293 293 294 293 293 293 294 295 295 295 296 296 296 295
302 302 302 301 301 301 301 303 301 301 301 298 297 299 300 302 302 303 302 301 299 299 301 300 300 300 298 294 292 297 301 301 301 301 298 296 297 298 298 299 299 298 299 299 300 300 300 298 299 301 302 301 301 301 300 299 298 295 296 295 294 293 294 294 294 294 295 295 294 294 294 293 293 293 292 293 294 294 294 293 294 294 295 296 296
304 303 303 303 303 303 303 301 300 298 295 297 301 302 301 304 304 303 302 302 301 300 300 300 299 298 296 297 297 299 300 300 297 297 297 297 297 297 298 297 297 299 300 300 300 301 300 299 299 297 295 299 299 299 299 299 299 299 297 296 295 294 294 294 295 295 295 294 295 294 295 295 294 295 295 295 294 293 294 294 294 293 294 294 294
304 303 302 302 301 300 300 300 298 301 301 301 302 303 303 303 302 301 300 300 299 299 298 298 298 297 296 298 298 296 298 299 298 298 297 297 297 298 298 298 298 299 299 299 298 300 297 298 296 296 295 297 299 299 299 299 299 299 299 299 298 298 299 299 298 294 295 294 294 296 296 296 295 295 293 295 296 295 295 295 294 295 295 294 294
305 304 303 302 302 300 301 302 303 303 303 303 303 303 304 304 303 301 299 300 300 299 301 300 299 299 299 299 299 299 300 299 299 298 297 298 298 298 298 299 298 299 298 298 299 298 297 296 296 296 294 297 298 299 299 299 299 299 298 299 299 299 300 299 300 298 297 297 296 296 297 296 296 296 294 293 295 295 294 295 295 294 294 294 295
304 303 302 301 302 302 302 302 301 297 302 302 302 302 301 301 302 302 301 299 300 301 302 302 302 302 300 301 300 301 300 301 301 301 300 300 299 299 300 300 297 297 298 298 298 296 295 296 297 297 294 295 294 298 300 300 299 299 299 299 299 300 298 295 300 300 300 299 298 296 296 296 296 296 296 294 295 296 295 296 295 296 294 294 294
301 301 301 302 302 302 302 302 301 304 303 303 301 302 301 302 302 303 302 302 303 302 304 303 303 302 302 302 301 301 300 299 302 302 302 302 302 302 300 300 298 299 297 295 296 296 297 297 296 296 297 296 298 298 299 300 300 300 300 300 298 291 290 290 295 300 297 296 298 298 298 298 296 294 295 294 294 294 295 294 295 295 295 295 295
303 302 302 302 304 304 304 305 305 305 303 304 304 304 303 304 303 303 303 304 304 303 304 303 303 303 303 301 299 301 301 302 302 303 303 303 302 302 301 300 300 299 296 296 294 297 298 298 299 297 297 298 299 300 300 300 300 300 301 301 293 289 289 288 288 290 295 297 296 297 298 297 295 296 296 295 295 294 293 293 294 293 295 295 294
303 304 304 304 304 304 305 306 306 306 306 306 305 305 304 305 304 304 305 304 304 304 303 305 305 304 303 302 299 300 301 303 304 303 303 303 302 301 300 299 298 297 299 298 299 299 299 299 298 296 296 295 297 299 300 300 300 301 297 292 289 288 288 288 291 288 287 291 295 297 296 296 295 294 295 295 296 295 293 293 293 294 295 295 295
Wind_Speed
22 19 18 18 19 21 20 18 18 17 17 16 16 15 14 11 11 10 10 10 10 10 10 11 10 9 9 8 9 8 8 8 6 6 5 5 5 5 6 6 6 5 5 5 4 5 6 6 6 5 5 5 4 3 3 3 2 2 1 3 3 3 4 5 5 5 4 2 4 5 5 4 5 3 3 3 2 2 3 1 1 1 1 1 1
21 21 19 18 21 20 20 18 18 17 16 16 16 15 11 10 10 10 11 10 11 11 11 10 9 10 9 9 8 8 8 8 7 6 6 6 5 4 5 7 6 6 6 6 6 4 5 6 6 5 4 5 5 4 4 3 3 3 3 2 3 3 3 5 5 5 7 5 5 5 5 5 5 5 4 3 2 1 1 0 2 1 1 2 2
23 21 19 20 21 20 19 18 18 18 17 16 16 13 11 10 11 11 10 10 10 10 11 10 10 10 8 8 8 8 8 8 7 7 6 7 7 6 5 6 7 7 7 6 7 5 6 6 6 5 4 5 5 4 4 4 3 3 3 2 2 3 4 4 5 6 8 7 7 7 6 6 5 5 3 2 2 1 2 1 2 1 1 2 2
21 20 19 20 20 19 19 18 18 18 17 15 17 15 11 10 11 11 11 9 10 9 9 10 9 9 9 8 8 8 8 7 7 7 7 7 7 7 7 6 6 7 7 7 7 6 7 7 6 6 6 6 5 4 4 4 4 4 4 3 3 4 4 4 6 6 7 7 7 7 6 5 4 2 1 3 2 2 2 3 3 3 3 2 2
21 21 20 21 19 19 19 19 18 18 17 15 17 16 12 11 10 12 10 10 10 9 9 9 9 9 8 9 9 8 8 8 8 7 6 6 7 6 7 6 6 6 5 6 6 7 7 7 7 7 7 6 6 5 4 5 4 4 4 4 4 4 3 4 4 5 6 6 6 4 3 4 1 0 1 2 1 2 2 3 1 3 4 4 2
21 20 20 20 20 20 19 18 19 20 18 16 17 16 13 12 12 10 11 12 11 10 11 9 10 10 9 9 9 8 8 8 8 8 7 7 6 5 5 5 6 5 5 5 6 6 7 7 7 7 7 7 6 5 5 6 5 5 5 4 4 4 4 3 4 5 6 6 6 5 4 3 2 2 1 2 3 3 3 3 2 1 2 4 3
20 20 19 21 19 20 20 20 19 18 17 16 15 15 14 12 13 12 11 12 12 11 10 10 9 10 10 9 9 9 9 8 8 8 8 8 7 7 6 6 6 5 5 6 6 6 6 6 7 7 7 7 7 7 7 7 6 6 6 5 3 4 4 5 5 5 6 6 5 4 5 2 1 3 1 0 1 1 3 4 3 4 3 2 3
20 19 19 19 19 20 20 18 18 17 16 16 15 15 14 12 12 11 12 12 12 12 12 12 9 9 9 9 9 8 8 8 8 8 8 8 8 8 7 7 7 6 5 5 5 6 6 6 7 7 7 7 8 8 8 7 6 6 3 3 4 5 5 5 4 5 5 5 5 4 3 3 3 1 1 2 3 3 1 2 4 5 5 4 2
21 21 20 20 20 19 17 16 16 17 17 16 16 16 15 12 12 11 11 11 9 11 11 11 11 10 8 8 9 8 8 8 7 8 9 9 8 8 8 8 7 7 6 6 6 6 6 5 6 6 6 7 9 8 8 6 6 6 4 4 5 5 4 4 4 4 4 5 4 3 4 4 4 3 3 3 2 2 0 1 3 3 4 5 3
15 15 17 20 18 18 18 16 17 13 13 16 17 17 13 12 11 12 12 12 10 10 10 10 11 11 10 9 8 7 7 6 8 13 11 9 9 7 7 7 8 7 7 7 6 6 6 5 5 8 8 8 9 9 8 7 7 5 5 5 5 4 4 5 4 4 4 5 5 5 5 5 5 5 4 2 0 1 2 2 3 4 4 5 3
19 19 17 18 17 16 17 15 13 13 18 17 16 14 12 10 11 11 12 11 11 10 8 9 9 9 10 10 10 8 7 6 13 14 13 12 10 8 8 8 7 8 7 8 7 7 6 6 6 8 8 7 7 8 7 7 6 3 5 5 3 6 6 5 5 5 5 5 4 5 5 6 6 5 3 1 2 3 2 2 3 4 4 5 6
19 18 19 17 18 18 15 15 16 18 17 17 18 15 11 12 11 12 11 11 10 10 9 10 9 9 8 10 10 8 7 10 16 14 14 13 10 9 8 8 7 7 8 8 7 7 7 7 6 5 6 7 7 7 6 5 5 3 4 5 3 2 3 3 6 6 6 5 5 6 6 6 5 4 3 2 3 4 3 3 3 3 4 5 5
20 20 17 17 14 15 17 18 17 15 16 15 15 13 15 16 15 16 14 12 11 12 12 11 10 9 10 11 10 9 8 13 16 16 14 14 13 10 8 8 8 8 8 9 8 8 8 7 6 5 5 7 6 7 7 7 4 4 3 5 4 6 6 2 3 4 6 6 6 6 6 4 4 4 4 3 2 4 3 4 2 3 4 5 5
19 18 18 13 15 16 17 18 17 17 16 18 15 13 15 16 16 15 12 11 11 12 12 12 10 10 11 11 10 9 9 14 17 16 15 15 14 10 8 9 8 9 9 9 8 9 9 9 8 6 5 7 6 7 7 7 6 5 4 5 6 6 5 4 5 4 4 5 5 5 3 3 4 3 3 3 4 4 3 4 3 4 4 5 7
19 18 18 14 16 17 17 18 18 18 14 14 14 18 15 16 16 13 10 12 13 13 13 12 10 10 10 9 9 9 8 16 16 16 15 15 14 10 7 7 7 8 8 9 9 9 9 8 7 7 7 7 6 7 7 6 5 4 5 5 6 6 7 7 6 6 5 4 4 4 2 4 4 3 2 3 3 3 3 4 4 4 5 6 8
16 15 15 15 18 18 17 17 17 14 12 15 14 17 15 14 13 12 11 11 10 10 11 11 11 11 10 10 8 9 8 17 16 17 16 15 15 8 8 8 8 8 8 8 7 7 8 8 8 8 6 7 8 9 6 5 5 5 6 6 6 4 3 3 2 3 3 3 4 4 3 1 3 2 1 2 2 2 3 3 3 4 5 5 5
15 15 16 16 16 18 18 17 15 13 14 16 15 18 15 13 11 11 11 10 10 10 11 11 11 11 12 11 11 10 9 15 16 17 16 16 13 8 8 8 7 8 7 7 7 7 6 8 8 7 7 6 9 11 9 7 6 7 7 6 4 3 4 3 2 3 4 5 7 6 5 5 3 3 3 3 3 2 3 4 6 4 5 6 5
15 16 16 16 16 14 13 13 16 16 17 16 16 17 15 12 13 10 11 11 11 11 10 10 10 11 13 13 12 11 9 14 18 17 17 18 14 10 9 8 8 7 7 7 7 7 7 8 7 7 7 7 12 11 11 8 6 7 6 6 5 5 4 3 2 3 5 5 6 6 6 6 7 7 8 8 7 6 5 6 5 3 6 5 6
15 16 16 16 14 14 15 15 13 15 18 12 15 18 16 12 11 11 10 11 12 11 11 10 9 9 10 10 14 12 9 13 18 18 19 19 14 9 9 8 8 7 7 7 6 6 6 8 9 7 8 8 13 12 12 10 7 7 8 7 7 7 5 4 4 5 5 5 4 4 5 7 7 6 6 10 10 10 8 7 5 5 6 6 6
14 13 12 14 14 15 14 15 15 14 13 13 10 15 12 9 11 12 10 10 10 10 11 9 11 10 10 8 9 9 9 9 14 18 19 19 17 10 9 8 9 9 7 7 7 5 5 6 9 10 7 10 13 13 13 12 8 7 7 8 7 7 5 4 4 5 6 6 4 3 4 3 3 4 4 5 6 8 8 7 6 6 6 6 6
13 13 13 14 14 15 13 15 16 14 12 13 11 12 12 12 12 11 10 9 10 10 11 9 9 10 9 9 9 9 8 10 12 18 18 19 16 12 9 9 9 8 8 7 7 7 7 7 7 11 12 11 12 13 13 14 11 7 7 7 8 4 3 3 4 5 6 5 4 4 5 5 4 4 4 4 4 5 6 6 6 6 6 6 6
13 13 14 15 14 14 14 14 15 13 12 12 13 11 12 13 13 13 12 11 12 11 10 9 9 8 7 7 9 9 10 12 11 16 18 18 17 15 10 10 9 9 8 7 7 7 7 7 7 11 14 12 13 13 14 14 13 7 8 11 6 7 5 4 3 3 4 4 5 6 6 6 6 6 5 5 4 4 5 5 6 6 6 6 6
11 13 13 14 15 14 14 16 14 12 14 13 13 15 14 12 12 13 16 14 11 11 10 9 9 9 8 5 5 6 7 8 15 13 17 19 19 16 13 10 11 9 8 8 8 7 6 7 6 11 14 14 13 14 14 14 10 9 11 10 9 7 3 4 3 3 4 4 5 6 7 7 6 6 6 6 5 4 4 4 4 4 5 6 7
13 11 12 14 14 14 14 16 16 14 15 14 13 14 14 10 14 14 14 13 10 10 7 10 9 9 9 7 6 6 6 6 11 16 15 18 16 16 14 11 14 9 8 6 5 5 5 6 7 13 14 14 14 14 14 12 9 13 13 11 8 6 4 4 5 5 5 5 6 7 7 6 5 5 5 5 4 3 4 4 4 5 5 5 6
10 9 6 3 10 14 14 13 13 11 13 14 14 11 14 14 14 13 14 13 9 10 11 13 13 10 7 8 8 8 7 7 6 10 14 16 18 17 15 13 15 11 8 5 5 7 9 9 9 13 13 14 15 13 9 11 14 12 12 10 7 5 6 7 7 6 7 8 7 6 6 6 5 4 3 3 3 4 5 5 5 5 5 5 5
16 17 15 13 10 4 5 8 9 9 12 10 10 12 14 14 13 13 12 13 12 11 14 13 12 10 10 9 8 8 9 7 6 6 9 13 13 16 15 12 12 14 11 8 12 9 8 8 11 11 11 10 8 6 7 9 13 11 8 7 6 7 7 7 7 7 7 7 7 6 7 5 4 3 2 3 4 5 4 5 6 7 5 5 6
14 16 16 13 12 12 13 12 11 10 11 11 13 13 14 15 14 11 10 10 9 9 8 9 9 9 11 9 8 6 6 6 7 6 7 8 7 8 8 6 6 6 6 4 5 5 6 7 6 8 6 12 10 8 8 5 5 6 6 7 7 6 6 7 8 7 8 7 7 7 6 4 2 3 5 5 5 5 5 5 5 5 4 4 5
14 16 17 16 16 16 15 18 17 12 11 12 12 13 15 15 15 14 12 11 11 10 9 9 10 10 9 8 7 6 6 6 7 8 8 7 7 7 7 7 8 8 8 7 6 6 5 6 7 6 5 5 5 4 4 4 5 5 5 6 6 6 7 5 5 6 6 6 6 5 4 4 5 6 5 5 5 5 4 3 4 5 5 4 5
16 18 16 14 15 15 14 14 13 12 11 10 11 10 15 15 14 12 13 13 14 13 12 12 12 11 10 10 10 9 8 9 11 13 13 13 12 10 9 9 8 8 10 10 6 5 5 6 5 6 6 6 4 6 5 4 5 5 6 6 6 6 6 7 8 8 7 6 7 6 6 6 6 5 5 5 5 4 2 3 4 5 4 4 6
18 18 17 18 16 15 14 14 14 13 12 11 9 6 11 8 3 11 11 10 8 11 14 12 13 10 9 9 11 12 13 11 12 14 13 13 13 15 15 16 16 12 12 15 10 7 8 7 7 6 7 7 6 5 4 5 6 7 7 8 7 6 6 7 7 7 7 7 7 7 7 7 6 5 5 5 4 4 4 5 5 4 5 5 6
11 14 16 16 18 17 15 14 13 12 13 13 11 10 6 8 14 11 11 7 10 14 10 6 12 13 12 10 6 6 10 15 19 17 17 17 18 16 14 12 12 11 14 11 7 6 5 6 7 8 7 6 4 6 6 6 5 5 7 7 6 6 5 6 7 7 7 4 6 7 6 6 6 5 5 5 6 5 4 4 4 4 5 6 6
10 10 9 7 15 16 15 14 13 12 12 12 13 12 11 11 8 12 9 12 11 11 12 14 14 12 10 10 10 7 11 15 16 16 16 16 15 14 13 13 14 15 16 14 7 6 6 6 6 6 6 6 4 7 7 7 7 6 7 4 4 6 6 7 7 7 6 6 5 5 5 5 6 6 6 6 6 5 4 4 4 4 5 5 6
10 7 6 7 6 8 11 13 12 12 12 11 11 11 12 11 12 9 9 11 11 10 12 13 14 14 15 15 16 14 13 14 16 16 16 16 16 16 15 15 15 15 14 9 8 6 7 8 8 7 7 5 7 6 6 7 7 7 6 5 4 6 7 7 6 6 5 6 5 5 4 4 4 6 4 5 4 3 4 3 4 4 5 5 5
12 11 9 10 10 8 9 11 12 12 12 12 11 11 11 11 13 13 12 9 9 10 11 8 11 13 13 14 12 12 14 15 15 16 16 16 16 15 13 10 12 15 13 9 8 5 7 7 6 7 7 6 6 6 6 6 6 6 6 6 7 7 6 4 5 5 5 5 5 5 5 5 5 4 4 3 3 3 3 3 4 3 3 4 5
10 12 19 16 11 11 10 10 11 12 13 12 12 12 11 11 12 13 14 13 10 10 8 5 4 7 8 8 10 14 14 13 14 15 15 15 16 16 15 10 8 6 8 8 8 7 7 7 7 7 7 6 6 6 6 7 6 6 6 6 6 5 4 5 5 5 5 5 6 5 5 5 6 4 3 3 3 3 3 3 3 4 5 5 4
9 8 8 12 11 10 10 10 11 11 12 10 9 8 9 10 10 9 9 10 10 9 8 6 6 5 9 11 14 14 13 13 13 14 15 17 18 18 10 8 6 8 8 7 7 7 7 7 7 6 6 6 5 6 6 5 5 5 5 5 5 6 6 5 5 4 6 5 4 4 5 3 3 3 3 4 6 5 3 3 3 3 4 5 4
9 9 8 7 9 9 9 9 8 9 10 10 10 10 8 6 8 9 9 9 9 9 11 10 8 7 6 5 8 11 12 13 14 16 16 17 18 12 7 8 8 8 7 7 7 7 7 7 6 5 5 5 6 5 4 4 4 5 6 6 6 6 6 6 4 4 4 4 4 4 5 4 3 3 4 4 4 3 3 3 3 3 3 3 4
11 10 9 10 10 10 10 9 9 11 11 10 10 11 11 9 8 9 9 9 10 10 10 9 8 9 8 5 7 7 8 12 14 11 9 11 8 6 6 6 7 7 7 6 6 6 6 5 5 6 6 5 5 5 5 5 5 5 5 6 5 4 4 3 4 6 4 4 4 4 4 4 4 4 4 5 4 3 3 3 3 3 3 3 4
7 15 16 14 11 10 10 10 10 9 9 10 9 10 11 10 9 8 8 8 8 8 8 8 10 10 8 8 7 9 12 8 7 6 7 6 7 5 5 5 6 5 5 5 6 6 5 5 5 5 5 5 5 5 5 5 5 5 5 3 3 3 4 4 4 4 5 5 5 5 5 5 5 4 4 4 4 4 4 3 3 3 3 4 4
12 11 12 17 12 11 10 10 11 10 8 9 8 8 10 9 9 9 9 9 8 8 8 8 8 7 8 8 9 9 8 8 7 7 6 6 4 6 5 6 6 5 5 5 5 6 6 5 5 5 6 6 5 5 5 5 4 4 3 3 3 4 4 4 5 5 5 5 4 4 4 4 4 4 4 4 4 4 4 3 3 3 4 4 3
8 11 10 11 12 11 10 11 10 10 8 8 8 7 7 8 8 9 8 8 8 8 7 7 6 7 8 9 12 11 8 7 6 6 7 7 6 6 6 5 5 5 4 5 5 5 5 4 4 4 4 5 5 5 5 5 4 3 3 3 4 4 4 4 4 4 4 4 4 4 4 4 4 4 5 4 6 5 3 3 3 3 3 3 3
10 10 10 10 11 10 10 10 9 10 10 6 8 7 6 7 7 7 7 7 7 6 6 6 6 6 8 13 12 7 5 5 5 6 5 5 5 5 5 4 5 5 6 6 6 6 5 5 4 5 5 5 5 4 4 4 4 3 4 4 4 4 4 4 4 4 4 4 4 4 4 4 4 4 4 5 3 3 3 3 3 3 3 3 3
10 9 9 9 9 9 9 9 9 9 8 8 8 7 8 7 6 7 7 7 6 7 7 7 6 6 7 9 10 8 5 6 6 6 6 5 4 4 5 5 5 5 5 4 4 4 5 5 5 5 5 5 5 5 4 3 3 3 3 4 4 4 4 4 3 4 4 4 4 4 4 3 3 3 3 3 3 3 3 3 3 3 3 3 3
10 9 9 9 9 9 9 8 9 9 9 10 10 9 8 8 8 7 8 8 7 7 7 7 7 8 7 7 7 6 5 5 5 5 6 5 5 5 5 4 4 4 4 4 4 4 4 4 3 4 4 4 4 4 5 4 5 3 3 3 4 4 4 4 4 4 4 3 4 3 3 4 4 3 4 4 4 4 3 3 3 3 3 3 3
9 10 10 10 9 8 7 6 8 9 10 9 8 7 7 7 7 7 7 7 6 6 6 6 6 6 6 6 6 5 4 4 4 4 4 4 4 4 3 4 4 4 5 5 4 5 5 4 3 2 3 4 4 4 5 5 5 5 5 3 4 4 4 4 4 3 3 3 3 3 3 3 3 3 4 4 4 4 3 3 4 5 3 3 3
8 9 9 9 9 8 8 7 7 7 7 7 7 7 7 7 6 7 6 6 6 6 6 5 5 5 5 5 5 5 4 4 4 4 4 3 4 4 4 4 4 4 4 3 4 5 4 3 3 3 3 3 4 5 5 5 5 5 5 5 6 6 5 5 4 3 3 3 4 3 3 3 3 3 3 2 3 3 3 3 3 3 3 4 4
8 8 8 8 9 8 7 7 6 6 7 7 7 7 7 7 7 6 6 7 7 6 6 6 5 5 5 5 6 6 5 5 5 5 5 4 4 4 4 4 4 4 4 4 4 4 4 4 3 3 3 3 4 5 4 4 5 5 6 6 6 6 6 5 5 3 4 3 3 3 3 3 2 2 3 4 3 3 3 3 3 3 3 4 4
8 8 8 8 8 8 8 7 8 7 7 7 6 7 6 7 7 7 6 6 6 6 6 6 5 5 6 5 5 5 5 5 4 4 5 5 5 5 5 4 3 3 3 4 4 3 2 3 3 3 3 3 3 4 4 5 5 5 5 6 6 7 6 5 5 5 5 4 4 3 3 3 3 3 2 2 2 2 3 3 3 3 4 4 4
8 9 9 7 7 8 7 7 7 6 7 7 7 7 6 6 6 6 6 6 5 5 5 5 5 5 5 5 4 4 4 4 4 4 4 4 4 4 4 4 4 3 2 2 2 4 4 4 3 3 3 4 5 5 5 5 5 5 6 6 7 8 7 6 6 5 4 3 3 5 4 3 3 3 3 3 3 3 3 3 3 3 4 4 4
9 9 8 8 8 7 7 6 6 6 6 6 7 6 6 6 6 6 6 6 5 5 4 4 4 4 4 5 4 4 4 4 4 4 3 3 3 3 3 3 4 3 2 2 2 3 4 4 4 4 4 5 5 5 5 5 5 5 6 6 6 8 8 8 9 6 4 3 3 3 4 3 3 3 3 3 3 3 3 4 4 4 4 4 4
7 8 7 7 7 7 7 7 7 7 7 7 7 7 6 6 6 6 6 6 6 5 4 4 4 4 3 3 3 3 4 4 3 3 3 3 3 2 2 2 3 3 3 3 4 4 4 4 3 3 3 3 3 4 5 5 5 6 5 4 6 7 7 7 6 8 8 6 3 3 3 4 3 4 4 3 3 3 4 5 4 4 5 5 4
Wind_Direction
188 190 188 190 184 186 187 189 190 190 187 186 190 190 184 167 171 164 162 172 167 172 175 175 173 171 166 163 160 158 159 160 162 161 168 162 164 167 164 176 174 164 159 157 168 176 172 159 150 140 152 155 145 145 141 133 135 140 167 198 200 180 207 215 227 134 135 120 155 165 160 185 185 202 208 196 192 182 205 118 309 316 303 293 307
191 191 191 188 187 187 185 185 186 186 185 183 188 189 171 167 161 159 170 173 173 174 176 172 173 169 167 165 161 161 163 160 161 166 167 162 159 157 172 175 171 161 163 166 169 176 157 149 146 146 159 148 142 146 140 140 145 147 138 174 185 173 199 210 208 169 156 163 177 174 178 200 215 189 209 218 191 238 260 163 200 257 335 321 300
192 190 187 187 187 184 182 184 184 185 182 184 187 178 164 164 162 165 172 168 174 175 175 172 170 169 165 163 161 161 164 159 161 168 168 171 172 169 175 177 169 164 173 169 166 160 160 154 151 149 148 143 133 116 118 121 116 111 115 132 141 155 176 206 179 172 163 170 177 182 191 192 219 190 198 234 272 310 301 319 319 313 316 332 300
189 188 188 188 184 181 182 182 182 183 183 185 186 182 163 163 163 169 172 166 170 177 173 170 166 166 165 164 165 160 162 160 161 171 172 174 176 172 174 177 175 178 178 167 161 165 166 159 154 154 156 148 142 133 126 122 125 125 127 134 155 164 173 183 191 166 171 165 186 198 185 187 205 205 263 261 270 277 302 313 293 319 348 329 307
188 188 186 183 182 183 182 180 182 183 184 183 184 181 165 161 164 170 166 166 172 168 168 168 165 169 169 172 167 165 166 165 165 167 167 172 173 167 173 175 179 182 173 164 162 173 171 170 158 159 161 154 147 148 141 138 140 148 153 159 164 154 159 173 168 162 165 178 176 191 178 194 129 4 325 294 272 253 241 250 304 344 359 349 311
188 186 184 180 183 184 183 180 181 180 181 183 183 181 171 161 163 170 169 169 169 173 170 171 174 176 176 173 167 164 164 165 170 170 168 164 160 160 167 174 179 177 167 166 171 173 175 169 161 163 167 163 157 146 150 159 165 171 168 171 160 150 138 153 175 175 175 175 168 173 194 194 189 232 195 329 341 330 334 319 264 175 2 358 338
186 187 183 182 183 184 183 185 180 176 179 179 178 178 175 163 166 168 171 172 170 172 173 170 172 173 174 167 165 163 163 165 166 164 162 164 167 165 168 172 170 166 168 168 169 173 175 167 163 167 170 166 159 165 169 174 179 178 178 168 147 134 162 185 182 179 181 172 170 179 177 167 213 205 138 359 293 298 327 321 332 3 2 4 333
186 186 184 184 184 184 186 184 176 173 175 176 176 176 176 163 168 167 170 175 175 175 172 172 169 170 167 166 163 159 158 162 163 164 166 167 166 167 170 168 169 161 159 163 166 173 175 172 171 170 173 169 173 177 178 179 177 182 171 147 146 170 188 182 181 180 174 176 182 175 168 169 187 222 221 232 220 201 214 321 326 338 340 335 335
185 188 186 184 184 183 182 180 177 168 166 169 172 175 178 165 166 167 172 175 174 174 169 167 162 167 162 162 160 159 161 165 165 164 166 168 167 169 171 171 166 160 163 166 170 173 173 170 170 171 174 180 188 180 185 171 171 179 152 173 179 196 201 187 181 180 174 179 175 171 181 194 201 207 225 231 261 343 24 280 289 306 320 322 354
178 180 184 186 183 179 176 171 172 157 159 169 171 174 170 160 165 169 175 176 171 164 161 162 163 165 164 164 162 160 165 169 163 167 169 168 169 168 165 166 168 166 166 164 165 171 172 169 168 172 179 184 189 189 176 172 181 184 166 185 192 208 202 193 192 190 185 190 193 181 193 205 202 210 230 234 343 262 259 259 296 326 320 329 314
184 183 183 185 182 174 169 165 163 156 170 169 171 167 159 155 164 170 173 174 170 159 150 156 161 163 167 166 167 170 170 167 158 170 171 165 165 164 166 166 170 172 170 167 169 171 170 175 177 184 186 187 190 173 163 172 186 181 163 186 194 206 198 196 197 191 195 201 186 190 204 208 206 208 220 235 223 238 261 271 292 312 329 330 330
181 183 185 179 175 167 163 165 165 169 166 167 168 168 155 163 165 169 170 168 164 160 162 164 162 162 164 169 168 169 170 152 164 171 173 170 169 165 166 165 170 174 175 173 171 172 174 178 185 178 193 191 175 165 171 186 191 112 126 167 173 206 263 230 198 190 196 195 193 206 213 217 205 193 202 222 232 226 229 256 275 296 310 315 317
180 183 177 173 163 163 166 168 167 164 166 162 163 162 170 177 180 185 182 167 156 165 174 166 164 164 166 169 170 167 168 157 171 172 174 174 170 166 168 168 171 174 173 177 175 177 178 181 184 189 173 164 164 173 174 179 154 121 134 174 183 169 163 148 286 254 189 200 205 212 221 218 199 202 203 224 248 264 255 255 251 274 296 298 304
178 176 175 163 167 169 168 171 167 165 162 164 163 157 164 177 180 182 170 156 163 173 174 168 160 167 173 172 167 168 170 167 174 174 172 173 170 175 167 168 174 174 174 175 177 181 183 185 186 185 174 181 185 177 182 180 178 173 184 198 199 176 179 185 196 238 260 233 226 231 203 185 215 198 186 214 244 257 269 278 294 294 296 306 313
177 174 171 165 168 168 168 170 170 168 159 158 163 172 170 175 177 175 160 165 171 174 171 170 169 168 168 166 162 165 174 166 175 172 171 171 170 177 165 167 172 174 176 179 183 182 181 184 183 191 176 181 177 169 177 182 183 188 201 202 205 192 192 193 199 199 202 227 241 245 230 202 225 218 195 217 242 269 289 299 315 306 297 290 275
175 169 171 172 172 171 168 169 166 161 154 164 164 168 170 169 170 168 164 170 177 169 170 167 163 169 169 164 161 170 166 167 172 171 168 169 165 178 170 172 175 176 176 179 180 180 178 177 183 196 179 184 145 156 176 177 185 197 206 201 195 191 209 227 359 360 311 281 256 257 255 309 356 313 309 267 248 242 247 250 247 245 257 275 289
173 171 173 174 176 172 170 167 161 155 160 166 168 172 170 165 162 164 168 168 166 173 169 166 165 170 168 170 173 175 167 172 171 168 166 164 168 180 171 178 178 176 175 172 177 178 180 182 188 195 182 188 151 163 155 172 198 201 204 196 186 196 226 216 165 217 255 268 276 288 296 290 265 247 232 240 253 275 261 256 252 239 266 286 297
174 173 176 175 174 170 161 160 166 164 166 171 172 172 172 162 167 165 165 163 172 173 167 165 168 172 171 173 177 170 168 169 171 167 164 169 177 175 175 177 174 174 168 172 181 182 186 180 186 192 186 187 151 167 161 175 203 198 196 190 195 215 227 213 189 201 192 233 237 241 245 252 252 237 225 214 203 215 228 246 280 284 281 289 301
177 176 177 175 167 162 168 167 164 163 168 163 172 174 169 161 159 163 167 168 169 170 167 161 163 174 178 175 172 167 161 164 171 167 168 174 180 176 174 173 168 175 177 174 178 183 175 185 193 204 203 162 156 167 170 184 206 199 199 201 209 215 217 197 214 228 227 226 204 190 218 221 230 232 214 199 202 206 227 249 269 262 281 294 304
177 175 167 166 167 166 167 170 166 160 155 160 153 169 165 146 158 168 167 169 167 168 165 161 167 176 177 168 166 174 155 154 172 170 173 177 183 176 173 172 179 176 180 176 172 180 178 187 189 200 199 151 167 171 179 190 201 199 196 208 210 221 210 209 232 250 251 251 251 207 238 218 222 232 234 196 195 208 223 232 243 253 265 277 286
167 166 164 164 165 166 165 169 167 163 163 166 163 164 163 161 162 169 161 164 164 164 165 165 166 169 170 171 170 170 161 155 169 173 175 179 182 177 176 181 179 172 174 174 181 179 186 195 205 181 183 171 173 179 184 195 204 199 195 203 208 175 135 216 215 217 247 246 244 242 245 248 240 245 240 226 215 203 215 223 229 236 248 265 279
170 167 163 161 162 163 165 166 164 158 152 161 169 167 169 164 165 170 174 170 166 166 164 167 169 161 163 164 164 163 164 161 154 178 178 179 181 185 179 183 178 170 171 184 186 192 193 189 205 174 175 174 180 182 190 194 203 210 211 214 194 153 190 222 223 204 227 235 242 244 246 250 252 254 256 249 237 210 215 220 216 227 231 245 263
159 159 159 161 162 165 165 162 163 161 165 167 165 170 171 167 170 174 177 174 164 163 166 166 167 169 167 150 133 142 147 157 164 171 182 181 184 190 188 174 163 171 173 178 188 192 187 185 184 155 174 179 182 187 192 197 189 215 218 206 213 193 202 237 225 225 233 235 238 248 248 248 253 258 257 250 234 214 220 226 224 224 233 238 245
157 157 162 163 163 164 165 167 165 163 168 167 165 160 170 162 175 180 176 170 162 166 162 173 173 165 165 146 128 135 146 158 178 178 177 180 180 190 191 179 164 186 178 180 171 161 171 190 184 166 177 183 188 190 195 186 199 210 216 210 195 178 214 226 231 237 239 244 239 242 247 250 256 260 255 249 244 217 237 245 247 233 234 239 232
98 104 106 133 164 164 169 170 156 166 169 165 154 157 166 168 174 177 173 167 159 169 176 184 185 176 147 136 143 156 166 177 166 183 174 175 183 190 190 179 180 170 175 186 178 192 201 191 166 167 180 185 192 194 192 198 212 214 211 204 172 195 208 225 228 226 233 237 242 243 248 252 257 267 281 275 264 254 246 239 233 234 235 240 246
148 157 166 162 164 154 124 128 151 169 160 161 156 161 168 171 172 171 171 173 175 176 183 182 178 168 164 166 165 163 161 154 156 153 171 185 190 194 188 182 175 181 185 183 190 186 182 169 162 166 174 181 175 185 198 205 209 209 198 182 203 209 210 215 226 223 234 236 234 242 253 258 250 239 240 258 262 255 248 257 262 254 243 249 258
159 160 156 151 142 138 146 161 166 166 176 161 171 172 173 178 174 165 171 170 166 166 156 158 164 164 170 170 166 156 158 162 155 148 158 168 186 179 178 183 174 183 202 178 152 169 158 161 169 171 169 177 186 188 200 170 155 180 195 198 212 211 205 215 221 226 231 236 241 248 251 251 254 236 247 235 245 247 235 248 257 265 264 261 258
157 160 160 161 164 169 169 168 164 164 171 167 166 172 178 179 178 174 172 168 163 170 168 170 166 166 162 160 156 155 165 167 174 166 170 169 162 161 168 171 175 184 188 190 180 171 156 130 127 154 149 155 180 180 190 189 193 176 191 196 208 214 220 233 253 249 248 243 251 249 248 240 246 249 241 241 244 246 228 237 246 256 251 246 246
161 163 164 164 169 167 163 162 168 162 162 167 172 169 177 181 177 176 179 171 170 164 172 177 175 170 163 160 159 171 176 187 200 189 180 175 164 158 170 181 183 187 190 156 121 124 143 163 168 162 176 181 182 193 183 181 199 202 202 209 213 214 214 213 219 227 229 225 232 236 243 244 247 243 245 254 253 249 203 232 230 244 239 232 248
170 170 170 168 168 168 164 166 163 161 156 155 138 65 20 37 144 170 170 159 160 173 163 169 172 164 161 168 169 168 187 197 146 150 154 162 170 176 183 182 182 183 158 155 162 169 181 185 187 187 187 191 189 189 184 190 202 206 208 203 210 211 212 214 222 230 223 223 233 234 240 245 251 247 252 258 260 244 220 224 236 223 230 230 239
177 178 175 175 167 166 165 163 162 158 155 151 148 139 115 56 49 74 102 119 141 140 143 131 155 161 159 155 153 68 94 124 155 165 165 174 177 182 182 180 166 148 140 144 179 186 177 188 191 197 193 194 193 197 196 203 211 217 219 200 201 207 211 223 226 222 218 219 226 237 239 236 246 253 257 258 259 254 224 208 228 228 236 241 247
183 182 188 196 168 160 158 157 157 152 150 151 149 149 138 120 71 32 71 122 119 125 134 139 144 143 147 137 135 126 139 152 157 167 170 167 170 168 164 158 157 154 162 164 175 188 192 196 198 201 195 195 198 204 206 215 212 221 222 215 205 199 205 220 219 215 212 217 220 223 225 226 233 242 247 249 248 253 239 214 218 227 236 236 240
177 165 164 156 169 160 146 145 147 147 145 147 152 151 146 139 131 112 46 54 88 113 131 135 139 144 143 150 158 159 160 163 164 164 166 165 160 162 159 158 155 155 151 175 200 190 194 201 203 199 196 206 202 201 209 213 218 220 223 215 216 209 214 220 204 213 219 221 217 219 215 214 217 236 241 242 234 248 237 233 227 227 227 231 232
168 157 146 155 158 152 146 143 142 144 145 152 156 156 154 154 148 138 130 123 80 59 54 95 139 144 149 153 145 133 139 151 160 163 161 161 158 149 140 141 147 160 171 186 194 194 185 194 196 204 210 210 210 199 212 219 223 218 219 228 233 235 224 189 186 208 213 220 224 227 215 218 212 224 238 233 230 243 251 243 227 219 223 223 231
149 158 156 154 156 152 147 148 146 146 150 153 157 158 154 151 146 148 149 151 145 140 144 101 96 132 135 135 131 134 140 147 153 155 152 149 144 136 124 128 144 178 201 212 201 196 187 191 203 205 211 207 206 209 214 220 217 217 227 231 235 228 218 207 215 208 216 223 228 230 223 221 219 222 235 240 232 230 234 234 231 225 230 226 222
141 137 143 143 133 136 141 148 151 149 150 149 140 128 131 143 144 141 129 128 127 127 119 105 102 63 115 129 134 136 140 145 143 140 141 141 143 146 153 166 163 179 188 192 194 191 194 200 206 210 207 213 210 215 218 214 208 213 222 225 225 230 230 224 211 215 221 228 231 238 240 232 230 227 232 238 238 239 245 242 239 228 233 235 225
124 125 113 115 123 121 122 127 133 132 128 127 125 119 118 124 128 125 127 126 129 128 127 124 109 92 70 71 114 123 131 133 135 139 143 149 158 169 175 166 171 170 182 182 182 188 194 203 203 203 200 206 216 215 208 208 208 218 227 233 234 234 231 227 223 217 221 227 228 226 226 235 230 223 224 238 238 231 239 241 240 238 233 228 227
116 114 118 124 120 119 121 115 113 116 121 124 128 132 134 141 140 133 130 131 132 132 134 133 135 139 142 135 137 129 112 105 103 102 125 144 164 184 167 169 175 177 177 179 180 186 194 189 193 199 204 206 212 211 210 211 204 213 221 227 231 234 226 236 232 235 229 231 227 223 224 229 232 228 221 233 245 252 245 235 242 239 209 201 223
101 119 120 119 117 122 120 116 117 116 116 119 127 133 133 134 130 121 119 127 130 130 134 136 151 156 148 144 134 131 123 138 156 157 159 170 174 173 168 171 175 173 170 174 181 192 197 192 191 194 198 204 204 199 199 202 202 206 210 215 215 222 211 225 226 222 222 225 226 223 222 227 225 223 223 231 238 248 254 249 234 231 226 205 210
117 115 111 112 107 109 118 119 119 115 117 123 128 132 130 132 129 132 136 137 137 141 146 149 149 149 148 150 142 149 151 154 157 156 160 165 167 171 174 175 178 174 173 180 184 195 199 200 187 189 198 202 199 194 193 195 193 196 200 211 219 221 223 225 225 223 225 223 231 232 231 230 231 227 224 229 243 248 249 244 240 219 220 231 223
110 112 110 111 115 117 114 118 119 121 122 123 133 136 131 126 124 134 133 133 136 141 139 142 140 137 156 158 156 161 150 153 145 153 165 165 168 175 178 176 172 175 181 187 188 192 195 187 187 191 196 200 198 194 189 185 187 193 206 209 216 227 222 221 224 230 229 231 233 233 232 226 226 222 225 231 229 243 248 241 233 218 210 225 232
106 105 105 111 114 114 115 111 114 113 115 122 125 125 112 119 120 126 123 123 119 117 120 120 122 131 135 145 156 161 143 136 139 147 154 160 166 173 172 172 180 188 192 198 196 191 189 188 191 197 197 195 197 197 192 189 191 197 199 207 209 217 223 221 218 223 226 230 227 227 229 224 224 232 241 256 252 238 238 231 226 218 213 212 214
101 105 107 108 107 109 109 113 116 115 117 123 119 111 110 107 103 113 116 114 119 124 127 128 127 130 142 158 162 175 171 162 164 163 160 163 168 167 175 186 186 193 192 185 183 186 182 190 197 201 202 198 197 193 194 200 192 199 201 203 209 212 221 227 223 212 214 226 230 222 223 232 234 238 238 228 233 242 239 226 221 225 218 217 223
103 100 96 95 96 100 102 110 112 118 123 115 112 114 116 116 120 123 127 129 132 133 131 133 134 136 137 145 162 184 175 158 164 167 163 165 171 178 182 179 173 170 178 183 186 190 192 193 197 196 190 196 195 197 207 206 202 202 208 206 209 213 219 224 226 223 221 223 225 225 222 227 230 233 225 221 217 217 217 210 221 225 231 227 222
100 101 107 108 105 101 97 94 109 112 117 117 116 117 118 120 124 124 125 126 121 118 114 119 124 128 134 149 164 173 162 157 154 154 160 166 166 169 162 161 168 183 187 187 181 184 199 199 193 181 183 193 192 198 206 210 209 213 210 212 219 213 217 218 226 226 223 228 234 231 225 218 215 224 226 213 205 203 214 203 216 221 229 243 237
99 102 102 102 102 96 105 109 111 114 116 113 116 117 115 113 113 117 116 115 116 118 122 125 130 134 143 146 154 155 158 157 166 170 163 162 161 167 169 170 175 181 184 176 175 185 195 190 182 187 190 198 192 201 202 207 209 215 220 217 223 225 226 221 217 211 209 214 230 229 218 221 225 231 222 224 199 204 217 222 227 225 239 236 232
101 100 100 99 102 99 101 110 114 109 108 105 109 114 116 116 116 112 111 117 121 125 131 132 136 142 148 150 157 165 166 170 171 169 174 172 164 162 168 176 172 175 172 174 177 181 184 191 196 192 192 199 196 200 208 207 210 212 215 221 223 227 228 220 210 208 214 212 217 234 230 236 225 227 195 215 230 208 219 223 229 222 231 238 241
98 99 96 102 106 112 111 107 108 107 106 110 108 109 109 114 118 118 120 124 128 129 128 136 142 147 154 154 154 156 163 170 165 172 169 170 169 173 170 168 173 176 175 175 179 182 186 191 195 194 191 195 204 208 207 209 212 214 215 215 220 221 216 209 219 215 217 213 209 220 222 235 246 245 240 215 236 242 230 225 224 229 226 227 237
105 109 113 110 111 117 120 120 119 118 115 113 109 110 108 111 113 117 123 126 128 131 138 142 143 146 150 147 147 147 149 161 165 168 170 161 158 158 164 165 168 174 179 184 185 181 190 194 194 195 196 198 203 211 212 211 213 215 217 224 212 206 206 204 235 224 219 218 223 219 230 235 240 247 247 249 239 238 240 249 249 243 236 236 235
106 107 107 112 111 112 112 112 110 110 108 110 110 109 109 112 117 119 124 126 128 130 134 136 141 149 145 141 147 149 156 164 168 170 166 162 161 160 163 165 172 175 184 187 193 189 196 197 194 198 202 208 205 210 214 213 216 217 219 221 194 185 203 203 221 241 240 229 225 229 231 236 241 243 245 235 230 225 234 238 236 244 247 248 243
97 99 101 101 106 110 114 115 115 117 119 119 121 122 124 124 124 125 130 133 136 134 134 139 139 136 130 126 134 153 162 164 161 165 164 163 164 168 175 176 180 189 196 194 194 195 196 196 199 196 203 206 216 216 219 219 218 221 213 177 178 193 196 199 209 207 221 246 237 232 233 233 238 242 241 243 236 230 225 233 234 237 244 244 245